Showing default

ORBCOMM FM 116, 41189

Orbit data source: Space-Track

ORBCOMM FM 116, 41189 is a payload satellite owned by Orbcomm (US) in LEO that was launched on Tue, 22 Dec 2015 UTC via an FALCON 9 launch vehicle from the Air Force Eastern Test Range (AFETR). Payload-class satellites include a variety of spacecraft equipped with specific instruments for various scientific and technological missions. These include communications satellites like Starlink; space stations such as the ISS; scientific satellites like the Hubble; Earth observation satellites from companies like Planet Labs, Umbra, and HawkEye 360; GPS; miniature CubeSats for education and research; and military/defense satellites.

Loading next visibility...
Identifier
41189, 2015-081L
Orbit
LEO
Last TLE update
7 hours ago
Origin
Manufacturer
SNC Louisville
Mission
Operational Commercial Communications
Bus & Motor
SN-100A, Unknown motor
Mass
172 kg wet, 158 kg dry
Launch date (UTC)
2015-12-22 (10 years ago)
Launch vehicle
FALCON 9
Launch site
Air Force Eastern Test Range (AFETR)
Object type
Payload
Rocket body
Debris
Shape & HBR
Box + 1 Pan + 1 Ant, 13 m
Radar Cross Section
2.222 m², Medium (>0.1 m² and < 1m²)

Expand to show TLE details & history

TLE from 7 hours ago
0 ORBCOMM FM 116
1 41189U 15081L   25192.10644952  .00000430  00000-0  12870-3 0  9996
2 41189  47.0026  82.6056 0002421 274.5873  85.4736 14.58243732509215
Epoch: 2025-07-11T02:33Z
TLE epoch observation values (Epoch: 2025-07-11T02:33:17.238Z)
Latitude
-0.00002°
Longitude
115.02062°
Altitude
698.931 km
Speed
7.508 km/s
True Right ascension
05h 30m 25s
True Declination
0° 00' 00"
Sunlit
Object was in daylight at epoch
Visualization orbit readout
Latitude
-0.90311°
Longitude
112.88904°
Altitude
698.978 km
Speed
7.508 km/s
Apparent Right ascension
06h 59m 12s
Apparent Declination
-21° 55' 59"
Sunlit
Object is in daylight
Visualization observer readout
Local Sidereal Time
21:25:15
Azimuth
70.83° E
Elevation
-54.241°
Doppler factor
1
Orbital elements
Apogee altitude
701.798 km
Perigee altitude
698.371 km
Semi-major axis
7,078.222 km
Eccentricity
0.00024
Inclination
47.0026°
RAAN
82.6056°
Arg. of periapsis
274.5873°
True anomaly
Unknown
Mean anomaly
85.4736°
Eccentric anomaly
Unknown
Mean motion
3.64466 °/min
Orbital period
98.77 mins
BSTAR
0.0001287
Loading maneuver chart data...
Loading SW <> Apogee altitude chart data...
Loading historical data...
Loading historical data...
Loading historical data...
Loading historical data...
Loading historical data...
Loading historical data...
Loading historical data...

ORBCOMM FM 116 Visibility forecast

Observer location: undefined°, undefined°

Span
Click to sort rows by Start time (UTC) header in descending order
Start Az.
Max El. time (UTC)
Max El. Az.
Max El.
End time (UTC)
End Az.
8 mins2025-07-11 19:09:36.109Z203.921° SW2025-07-11 19:13:36.109Z142.843° SSE30.654°2025-07-11 19:17:36.109Z77.863° E
8 mins2025-07-11 20:53:36.109Z260.2° W2025-07-11 20:56:36.109Z308.773° NW40.761°2025-07-11 21:01:36.109Z58.231° ENE
8 mins2025-07-11 22:37:36.109Z296.192° NW2025-07-11 22:41:36.109Z9.432° NNE30.294°2025-07-11 22:45:36.109Z63.942° ENE
8 mins2025-07-12 00:21:36.109Z305.812° NW2025-07-12 00:25:36.109Z27.025° NE37.399°2025-07-12 00:29:36.109Z91.413° ESE
8 mins2025-07-12 02:05:36.109Z286.104° WNW2025-07-12 02:08:36.109Z233.076° WSW38.232°2025-07-12 02:13:36.109Z140.138° SSE
|